Time,TemperatureF,DewpointF,PressureIn,WindDirection,WindDirectionDegrees,WindSpeedMPH,WindSpeedGustMPH,Humidity,HourlyPrecipIn,Conditions,Clouds,dailyrainin,SoftwareType,DateUTC
2013-02-21 00:09:00,25.8,15.6,29.81,North,5,8.0,15.0,65,0.00,,,0.00,Wunderground v.1.15,2013-02-21 05:09:00,
2013-02-21 00:19:00,25.7,15.6,29.81,North,5,10.0,10.0,65,0.00,,,0.00,Wunderground v.1.15,2013-02-21 05:19:00,
2013-02-21 00:29:00,25.6,15.5,29.81,North,5,11.0,13.0,65,0.00,,,0.00,Wunderground v.1.15,2013-02-21 05:29:00,
2013-02-21 00:39:00,25.8,16.3,29.81,North,5,9.0,11.0,67,0.00,,,0.00,Wunderground v.1.15,2013-02-21 05:39:00,
2013-02-21 00:49:00,25.8,16.0,29.81,North,5,10.0,12.0,66,0.00,,,0.00,Wunderground v.1.15,2013-02-21 05:49:00,
2013-02-21 00:59:00,25.8,16.0,29.81,North,5,10.0,10.0,66,0.00,,,0.00,Wunderground v.1.15,2013-02-21 05:59:00,
2013-02-21 01:09:00,25.9,16.4,29.81,North,5,10.0,10.0,67,0.00,,,0.00,Wunderground v.1.15,2013-02-21 06:09:00,
2013-02-21 01:19:00,25.9,16.4,29.82,North,5,9.0,13.0,67,0.00,,,0.00,Wunderground v.1.15,2013-02-21 06:19:00,
2013-02-21 01:29:00,25.8,15.6,29.82,North,5,10.0,10.0,65,0.00,,,0.00,Wunderground v.1.15,2013-02-21 06:29:00,
2013-02-21 01:39:00,25.6,15.5,29.82,North,5,9.0,11.0,65,0.00,,,0.00,Wunderground v.1.15,2013-02-21 06:39:00,
2013-02-21 01:49:00,25.5,15.7,29.82,North,360,9.0,9.0,66,0.00,,,0.00,Wunderground v.1.15,2013-02-21 06:49:00,
2013-02-21 01:59:00,25.6,15.8,29.82,North,5,9.0,9.0,66,0.00,,,0.00,Wunderground v.1.15,2013-02-21 06:59:00,
2013-02-21 02:09:00,25.5,15.7,29.81,North,5,7.0,9.0,66,0.00,,,0.00,Wunderground v.1.15,2013-02-21 07:09:00,
2013-02-21 02:19:00,25.4,15.3,29.81,North,5,7.0,7.0,65,0.00,,,0.00,Wunderground v.1.15,2013-02-21 07:19:00,
2013-02-21 02:29:00,25.2,15.8,29.81,North,5,7.0,8.0,67,0.00,,,0.00,Wunderground v.1.15,2013-02-21 07:29:00,
2013-02-21 02:39:00,25.2,15.8,29.81,North,5,7.0,7.0,67,0.00,,,0.00,Wunderground v.1.15,2013-02-21 07:39:00,
2013-02-21 02:49:00,25.3,15.5,29.81,North,5,8.0,8.0,66,0.00,,,0.00,Wunderground v.1.15,2013-02-21 07:49:00,
2013-02-21 02:59:00,25.2,15.8,29.81,North,5,8.0,8.0,67,0.00,,,0.00,Wunderground v.1.15,2013-02-21 07:59:00,
2013-02-21 03:09:00,25.3,15.5,29.81,North,5,9.0,9.0,66,0.00,,,0.00,Wunderground v.1.15,2013-02-21 08:09:00,
2013-02-21 03:19:00,25.2,15.4,29.81,North,5,8.0,8.0,66,0.00,,,0.00,Wunderground v.1.15,2013-02-21 08:19:00,
2013-02-21 03:29:00,25.1,15.3,29.81,North,5,8.0,8.0,66,0.00,,,0.00,Wunderground v.1.15,2013-02-21 08:29:00,
2013-02-21 03:38:00,25.0,14.9,29.82,North,5,10.0,10.0,65,0.00,,,0.00,Wunderground v.1.15,2013-02-21 08:38:00,
2013-02-21 03:48:00,25.1,16.0,29.82,North,5,7.0,12.0,68,0.00,,,0.00,Wunderground v.1.15,2013-02-21 08:48:00,
2013-02-21 03:58:00,25.0,15.9,29.82,North,5,8.0,8.0,68,0.00,,,0.00,Wunderground v.1.15,2013-02-21 08:58:00,
2013-02-21 04:08:00,24.9,15.5,29.82,North,5,8.0,10.0,67,0.00,,,0.00,Wunderground v.1.15,2013-02-21 09:08:00,
2013-02-21 04:18:00,24.8,15.4,29.82,North,5,8.0,8.0,67,0.00,,,0.00,Wunderground v.1.15,2013-02-21 09:18:00,
2013-02-21 04:28:00,24.8,15.4,29.82,North,5,8.0,9.0,67,0.00,,,0.00,Wunderground v.1.15,2013-02-21 09:28:00,
2013-02-21 04:38:00,24.9,16.2,29.82,North,5,9.0,14.0,69,0.00,,,0.00,Wunderground v.1.15,2013-02-21 09:38:00,
2013-02-21 04:48:00,25.0,15.9,29.82,North,5,11.0,11.0,68,0.00,,,0.00,Wunderground v.1.15,2013-02-21 09:48:00,
2013-02-21 04:58:00,25.1,16.4,29.82,North,5,8.0,14.0,69,0.00,,,0.00,Wunderground v.1.15,2013-02-21 09:58:00,
2013-02-21 05:09:00,25.3,16.5,29.83,North,5,11.0,13.0,69,0.00,,,0.00,Wunderground v.1.15,2013-02-21 10:09:00,
2013-02-21 05:19:00,25.2,16.5,29.83,North,5,11.0,15.0,69,0.00,,,0.00,Wunderground v.1.15,2013-02-21 10:19:00,
2013-02-21 05:29:00,25.4,17.0,29.83,North,5,12.0,12.0,70,0.00,,,0.00,Wunderground v.1.15,2013-02-21 10:29:00,
2013-02-21 05:39:00,25.2,16.5,29.83,North,5,10.0,10.0,69,0.00,,,0.00,Wunderground v.1.15,2013-02-21 10:39:00,
2013-02-21 05:49:00,25.1,16.0,29.83,North,5,11.0,19.0,68,0.00,,,0.00,Wunderground v.1.15,2013-02-21 10:49:00,
2013-02-21 05:59:00,25.1,16.7,29.83,North,5,11.0,11.0,70,0.00,,,0.00,Wunderground v.1.15,2013-02-21 10:59:00,
2013-02-21 06:09:00,25.1,16.4,29.83,North,5,11.0,11.0,69,0.00,,,0.00,Wunderground v.1.15,2013-02-21 11:09:00,
2013-02-21 06:19:00,25.2,16.5,29.83,North,5,12.0,12.0,69,0.00,,,0.00,Wunderground v.1.15,2013-02-21 11:19:00,
2013-02-21 06:29:00,25.0,15.9,29.83,North,5,12.0,12.0,68,0.00,,,0.00,Wunderground v.1.15,2013-02-21 11:29:00,
2013-02-21 06:39:00,24.9,15.5,29.83,North,5,10.0,10.0,67,0.00,,,0.00,Wunderground v.1.15,2013-02-21 11:39:00,
2013-02-21 06:49:00,24.9,15.5,29.83,North,5,10.0,17.0,67,0.00,,,0.00,Wunderground v.1.15,2013-02-21 11:49:00,
2013-02-21 06:59:00,24.8,15.0,29.83,North,5,10.0,10.0,66,0.00,,,0.00,Wunderground v.1.15,2013-02-21 11:59:00,
2013-02-21 07:09:00,25.0,15.2,29.83,North,5,9.0,14.0,66,0.00,,,0.00,Wunderground v.1.15,2013-02-21 12:09:00,
2013-02-21 07:19:00,25.1,15.7,29.84,North,5,9.0,9.0,67,0.00,,,0.00,Wunderground v.1.15,2013-02-21 12:19:00,
2013-02-21 07:29:00,25.1,15.7,29.84,North,5,10.0,10.0,67,0.00,,,0.00,Wunderground v.1.15,2013-02-21 12:29:00,
2013-02-21 07:39:00,25.2,16.1,29.84,North,5,9.0,9.0,68,0.00,,,0.00,Wunderground v.1.15,2013-02-21 12:39:00,
2013-02-21 07:49:00,25.4,16.0,29.85,North,5,8.0,10.0,67,0.00,,,0.00,Wunderground v.1.15,2013-02-21 12:49:00,
2013-02-21 07:59:00,25.3,15.9,29.85,North,5,9.0,9.0,67,0.00,,,0.00,Wunderground v.1.15,2013-02-21 12:59:00,
2013-02-21 08:09:00,25.3,14.8,29.85,North,5,9.0,9.0,64,0.00,,,0.00,Wunderground v.1.15,2013-02-21 13:09:00,
2013-02-21 08:19:00,25.5,15.7,29.85,North,360,7.0,11.0,66,0.00,,,0.00,Wunderground v.1.15,2013-02-21 13:19:00,
2013-02-21 08:29:00,25.5,15.4,29.85,North,5,9.0,9.0,65,0.00,,,0.00,Wunderground v.1.15,2013-02-21 13:29:00,
2013-02-21 08:39:00,25.7,15.9,29.85,North,5,8.0,11.0,66,0.00,,,0.00,Wunderground v.1.15,2013-02-21 13:39:00,
2013-02-21 08:49:00,25.8,15.6,29.85,North,5,9.0,12.0,65,0.00,,,0.00,Wunderground v.1.15,2013-02-21 13:49:00,
2013-02-21 08:58:00,26.0,15.5,29.85,North,5,8.0,14.0,64,0.00,,,0.00,Wunderground v.1.15,2013-02-21 13:58:00,
2013-02-21 09:08:00,25.7,14.8,29.85,North,5,10.0,10.0,63,0.00,,,0.00,Wunderground v.1.15,2013-02-21 14:08:00,
2013-02-21 09:18:00,25.9,15.0,29.84,North,5,7.0,14.0,63,0.00,,,0.00,Wunderground v.1.15,2013-02-21 14:18:00,
2013-02-21 09:28:00,26.1,14.8,29.84,North,5,10.0,18.0,62,0.00,,,0.00,Wunderground v.1.15,2013-02-21 14:28:00,
2013-02-21 09:38:00,26.4,15.5,29.83,North,5,9.0,9.0,63,0.00,,,0.00,Wunderground v.1.15,2013-02-21 14:38:00,
2013-02-21 09:48:00,26.5,15.6,29.83,North,5,10.0,10.0,63,0.00,,,0.00,Wunderground v.1.15,2013-02-21 14:48:00,
2013-02-21 09:58:00,26.7,16.5,29.83,North,5,8.0,11.0,65,0.00,,,0.00,Wunderground v.1.15,2013-02-21 14:58:00,
2013-02-21 10:09:00,27.0,16.1,29.83,North,5,10.0,15.0,63,0.00,,,0.00,Wunderground v.1.15,2013-02-21 15:09:00,
2013-02-21 10:19:00,27.0,16.1,29.83,North,5,11.0,11.0,63,0.00,,,0.00,Wunderground v.1.15,2013-02-21 15:19:00,
2013-02-21 10:29:00,27.0,15.3,29.83,North,5,11.0,18.0,61,0.00,,,0.00,Wunderground v.1.15,2013-02-21 15:29:00,
2013-02-21 10:39:00,27.4,16.4,29.83,North,5,9.0,11.0,63,0.00,,,0.00,Wunderground v.1.15,2013-02-21 15:39:00,
2013-02-21 10:49:00,27.6,17.0,29.83,North,5,10.0,10.0,64,0.00,,,0.00,Wunderground v.1.15,2013-02-21 15:49:00,
2013-02-21 10:59:00,27.7,16.4,29.83,North,5,9.0,14.0,62,0.00,,,0.00,Wunderground v.1.15,2013-02-21 15:59:00,
2013-02-21 11:09:00,27.9,16.6,29.83,North,5,10.0,10.0,62,0.00,,,0.00,Wunderground v.1.15,2013-02-21 16:09:00,
2013-02-21 11:19:00,28.2,16.5,29.83,North,5,8.0,8.0,61,0.00,,,0.00,Wunderground v.1.15,2013-02-21 16:19:00,
2013-02-21 11:29:00,28.4,17.0,29.83,North,5,8.0,8.0,62,0.00,,,0.00,Wunderground v.1.15,2013-02-21 16:29:00,
2013-02-21 11:39:00,28.8,17.0,29.83,North,5,9.0,16.0,61,0.00,,,0.00,Wunderground v.1.15,2013-02-21 16:39:00,
2013-02-21 11:49:00,29.2,17.8,29.83,North,5,8.0,10.0,62,0.00,,,0.00,Wunderground v.1.15,2013-02-21 16:49:00,
2013-02-21 11:59:00,29.3,17.1,29.83,North,5,11.0,11.0,60,0.00,,,0.00,Wunderground v.1.15,2013-02-21 16:59:00,
2013-02-21 12:09:00,29.5,17.7,29.83,North,5,10.0,10.0,61,0.00,,,0.00,Wunderground v.1.15,2013-02-21 17:09:00,
2013-02-21 12:19:00,29.7,18.3,29.82,North,360,10.0,13.0,62,0.00,,,0.00,Wunderground v.1.15,2013-02-21 17:19:00,
2013-02-21 12:29:00,29.9,18.1,29.82,North,5,10.0,10.0,61,0.00,,,0.00,Wunderground v.1.15,2013-02-21 17:29:00,
2013-02-21 12:39:00,30.2,18.0,29.82,North,5,10.0,10.0,60,0.00,,,0.00,Wunderground v.1.15,2013-02-21 17:39:00,
2013-02-21 12:49:00,30.3,18.5,29.81,North,5,10.0,10.0,61,0.00,,,0.00,Wunderground v.1.15,2013-02-21 17:49:00,
2013-02-21 12:59:00,30.4,17.8,29.81,North,5,11.0,12.0,59,0.00,,,0.00,Wunderground v.1.15,2013-02-21 17:59:00,
2013-02-21 13:09:00,30.6,18.3,29.81,North,5,12.0,12.0,60,0.00,,,0.00,Wunderground v.1.15,2013-02-21 18:09:00,
2013-02-21 13:19:00,30.9,19.0,29.81,North,5,10.0,18.0,61,0.00,,,0.00,Wunderground v.1.15,2013-02-21 18:19:00,
2013-02-21 13:29:00,31.1,18.0,29.81,North,5,14.0,14.0,58,0.00,,,0.00,Wunderground v.1.15,2013-02-21 18:29:00,
2013-02-21 13:38:00,31.3,18.6,29.81,North,5,15.0,15.0,59,0.00,,,0.00,Wunderground v.1.15,2013-02-21 18:38:00,
2013-02-21 13:48:00,31.5,20.3,29.81,North,5,14.0,19.0,63,0.00,,,0.00,Wunderground v.1.15,2013-02-21 18:48:00,
2013-02-21 13:58:00,31.7,19.0,29.81,North,5,18.0,21.0,59,0.00,,,0.00,Wunderground v.1.15,2013-02-21 18:58:00,
2013-02-21 14:08:00,31.5,17.6,29.80,North,5,19.0,19.0,56,0.00,,,0.00,Wunderground v.1.15,2013-02-21 19:08:00,
2013-02-21 14:18:00,31.8,19.1,29.81,North,5,18.0,18.0,59,0.00,,,0.00,Wunderground v.1.15,2013-02-21 19:18:00,
2013-02-21 14:28:00,32.0,20.1,29.81,North,5,18.0,18.0,61,0.00,,,0.00,Wunderground v.1.15,2013-02-21 19:28:00,
2013-02-21 14:38:00,32.3,20.0,29.82,North,5,16.0,16.0,60,0.00,,,0.00,Wunderground v.1.15,2013-02-21 19:38:00,
2013-02-21 14:48:00,32.5,20.1,29.82,North,5,15.0,20.0,60,0.00,,,0.00,Wunderground v.1.15,2013-02-21 19:48:00,
2013-02-21 14:58:00,32.3,20.7,29.82,North,5,23.0,23.0,62,0.00,,,0.00,Wunderground v.1.15,2013-02-21 19:58:00,
2013-02-21 15:09:00,32.1,19.4,29.82,North,5,24.0,24.0,59,0.00,,,0.00,Wunderground v.1.15,2013-02-21 20:09:00,
2013-02-21 15:19:00,32.0,20.4,29.82,North,5,23.0,23.0,62,0.00,,,0.00,Wunderground v.1.15,2013-02-21 20:19:00,
2013-02-21 15:29:00,32.0,20.8,29.82,North,5,21.0,21.0,63,0.00,,,0.00,Wunderground v.1.15,2013-02-21 20:29:00,
2013-02-21 15:39:00,31.9,19.6,29.82,North,5,22.0,22.0,60,0.00,,,0.00,Wunderground v.1.15,2013-02-21 20:39:00,
2013-02-21 15:49:00,31.9,19.6,29.83,North,5,25.0,29.0,60,0.00,,,0.00,Wunderground v.1.15,2013-02-21 20:49:00,
2013-02-21 15:59:00,32.0,19.7,29.83,North,5,25.0,28.0,60,0.00,,,0.00,Wunderground v.1.15,2013-02-21 20:59:00,
2013-02-21 16:09:00,31.8,20.3,29.84,North,5,23.0,23.0,62,0.00,,,0.00,Wunderground v.1.15,2013-02-21 21:09:00,
2013-02-21 16:19:00,31.6,19.7,29.85,North,5,24.0,24.0,61,0.00,,,0.00,Wunderground v.1.15,2013-02-21 21:19:00,
2013-02-21 16:29:00,31.5,20.3,29.85,North,5,23.0,23.0,63,0.00,,,0.00,Wunderground v.1.15,2013-02-21 21:29:00,
2013-02-21 16:39:00,31.4,21.3,29.86,North,5,23.0,29.0,66,0.00,,,0.00,Wunderground v.1.15,2013-02-21 21:39:00,
2013-02-21 16:49:00,31.3,20.2,29.86,North,5,26.0,26.0,63,0.00,,,0.00,Wunderground v.1.15,2013-02-21 21:49:00,
2013-02-21 16:59:00,30.9,19.8,29.86,North,360,28.0,28.0,63,0.00,,,0.00,Wunderground v.1.15,2013-02-21 21:59:00,
2013-02-21 17:09:00,30.7,19.2,29.87,North,5,30.0,30.0,62,0.00,,,0.00,Wunderground v.1.15,2013-02-21 22:09:00,
2013-02-21 17:19:00,30.5,19.4,29.88,North,5,30.0,30.0,63,0.00,,,0.00,Wunderground v.1.15,2013-02-21 22:19:00,
2013-02-21 17:29:00,30.3,19.2,29.88,North,5,28.0,32.0,63,0.00,,,0.00,Wunderground v.1.15,2013-02-21 22:29:00,
2013-02-21 17:39:00,30.0,19.3,29.89,North,5,28.0,28.0,64,0.00,,,0.00,Wunderground v.1.15,2013-02-21 22:39:00,
2013-02-21 17:49:00,29.9,19.6,29.91,North,360,26.0,26.0,65,0.00,,,0.00,Wunderground v.1.15,2013-02-21 22:49:00,
2013-02-21 17:59:00,29.7,19.7,29.91,North,5,26.0,31.0,66,0.00,,,0.00,Wunderground v.1.15,2013-02-21 22:59:00,
2013-02-21 18:09:00,29.4,19.4,29.92,North,5,28.0,29.0,66,0.00,,,0.00,Wunderground v.1.15,2013-02-21 23:09:00,
2013-02-21 18:19:00,28.9,18.2,29.93,North,5,29.0,29.0,64,0.00,,,0.00,Wunderground v.1.15,2013-02-21 23:19:00,
2013-02-21 18:28:00,28.5,18.2,29.93,North,5,28.0,28.0,65,0.00,,,0.00,Wunderground v.1.15,2013-02-21 23:28:00,
2013-02-21 18:38:00,28.4,18.1,29.94,North,5,27.0,27.0,65,0.00,,,0.00,Wunderground v.1.15,2013-02-21 23:38:00,
2013-02-21 18:48:00,27.9,18.4,29.95,North,5,27.0,27.0,67,0.00,,,0.00,Wunderground v.1.15,2013-02-21 23:48:00,
2013-02-21 18:58:00,27.5,18.0,29.95,North,5,27.0,27.0,67,0.00,,,0.00,Wunderground v.1.15,2013-02-21 23:58:00,
2013-02-21 19:08:00,27.4,18.6,29.96,North,5,27.0,28.0,69,0.00,,,0.00,Wunderground v.1.15,2013-02-22 00:08:00,
2013-02-21 19:18:00,27.2,18.0,29.97,North,5,26.0,26.0,68,0.00,,,0.00,Wunderground v.1.15,2013-02-22 00:18:00,
2013-02-21 19:29:00,26.9,16.7,29.97,North,5,26.0,26.0,65,0.00,,,0.00,Wunderground v.1.15,2013-02-22 00:29:00,
2013-02-21 19:38:00,26.8,17.0,29.99,North,5,27.0,27.0,66,0.00,,,0.00,Wunderground v.1.15,2013-02-22 00:38:00,
2013-02-21 19:48:00,26.8,17.6,30.00,North,5,27.0,27.0,68,0.00,,,0.00,Wunderground v.1.15,2013-02-22 00:48:00,
2013-02-21 19:59:00,26.7,17.6,30.00,North,5,25.0,25.0,68,0.00,,,0.00,Wunderground v.1.15,2013-02-22 00:59:00,
2013-02-21 20:09:00,26.6,17.8,30.00,North,5,26.0,26.0,69,0.00,,,0.00,Wunderground v.1.15,2013-02-22 01:09:00,
2013-02-21 20:19:00,26.5,17.4,30.02,North,5,25.0,27.0,68,0.00,,,0.00,Wunderground v.1.15,2013-02-22 01:19:00,
2013-02-21 20:29:00,26.3,16.8,30.02,North,360,25.0,25.0,67,0.00,,,0.00,Wunderground v.1.15,2013-02-22 01:29:00,
2013-02-21 20:39:00,26.6,17.8,30.02,North,5,24.0,29.0,69,0.00,,,0.00,Wunderground v.1.15,2013-02-22 01:39:00,
2013-02-21 20:49:00,26.8,18.3,30.05,North,5,25.0,26.0,70,0.00,,,0.00,Wunderground v.1.15,2013-02-22 01:49:00,
2013-02-21 20:59:00,26.7,18.6,30.05,North,5,25.0,25.0,71,0.00,,,0.00,Wunderground v.1.15,2013-02-22 01:59:00,
2013-02-21 21:09:00,26.8,18.3,30.06,North,5,24.0,28.0,70,0.00,,,0.00,Wunderground v.1.15,2013-02-22 02:09:00,
2013-02-21 21:19:00,26.8,18.3,30.06,North,5,26.0,26.0,70,0.00,,,0.00,Wunderground v.1.15,2013-02-22 02:19:00,
2013-02-21 21:29:00,26.6,17.8,30.06,North,5,24.0,26.0,69,0.00,,,0.00,Wunderground v.1.15,2013-02-22 02:29:00,
2013-02-21 21:39:00,26.7,18.6,30.07,North,360,24.0,24.0,71,0.00,,,0.00,Wunderground v.1.15,2013-02-22 02:39:00,
2013-02-21 21:49:00,26.8,18.7,30.08,North,5,23.0,27.0,71,0.00,,,0.00,Wunderground v.1.15,2013-02-22 02:49:00,
2013-02-21 21:59:00,26.9,18.7,30.08,North,5,24.0,24.0,71,0.00,,,0.00,Wunderground v.1.15,2013-02-22 02:59:00,
2013-02-21 22:09:00,26.5,18.7,30.08,North,5,25.0,25.0,72,0.00,,,0.00,Wunderground v.1.15,2013-02-22 03:09:00,
2013-02-21 22:19:00,26.5,19.0,30.09,North,5,24.0,26.0,73,0.00,,,0.00,Wunderground v.1.15,2013-02-22 03:19:00,
2013-02-21 22:29:00,26.7,19.5,30.09,North,5,23.0,23.0,74,0.00,,,0.00,Wunderground v.1.15,2013-02-22 03:29:00,
2013-02-21 22:39:00,26.9,19.4,30.09,North,5,23.0,24.0,73,0.00,,,0.00,Wunderground v.1.15,2013-02-22 03:39:00,
2013-02-21 22:49:00,26.8,19.0,30.10,North,360,23.0,23.0,72,0.00,,,0.00,Wunderground v.1.15,2013-02-22 03:49:00,
2013-02-21 22:59:00,26.9,19.4,30.10,North,5,23.0,25.0,73,0.00,,,0.00,Wunderground v.1.15,2013-02-22 03:59:00,
2013-02-21 23:09:00,27.0,19.8,30.10,North,5,23.0,27.0,74,0.00,,,0.00,Wunderground v.1.15,2013-02-22 04:09:00,
2013-02-21 23:19:00,26.8,19.3,30.10,North,5,25.0,30.0,73,0.00,,,0.00,Wunderground v.1.15,2013-02-22 04:19:00,
2013-02-21 23:29:00,26.8,19.3,30.10,North,5,24.0,26.0,73,0.00,,,0.00,Wunderground v.1.15,2013-02-22 04:29:00,
2013-02-21 23:39:00,26.7,19.5,30.11,North,5,23.0,26.0,74,0.00,,,0.00,Wunderground v.1.15,2013-02-22 04:39:00,
2013-02-21 23:49:00,26.7,19.2,30.11,North,5,24.0,26.0,73,0.00,,,0.00,Wunderground v.1.15,2013-02-22 04:49:00,
2013-02-21 23:58:00,27.0,19.8,30.11,North,5,23.0,24.0,74,0.00,,,0.00,Wunderground v.1.15,2013-02-22 04:58:00,